CW2073 Weather Reports


Display with metric or nautical units.
time (UTC)temp
F
wind
direction
speed
MPH
gust
MPH
rain 1hr
in
rain 24hr
in
rain mn
in
humidity
%
barometer
mb
20260506112520 66 222 1.0 5.0 0.00 0.00 0.00 73 1009.2
20260506111517 65 216 1.0 4.0 0.00 0.00 0.00 74 1009.1
20260506110539 64 239 1.0 4.0 0.00 0.00 0.00 77 1009.0
20260506105521 63 201 1.0 3.0 0.00 0.00 0.00 79 1009.0
20260506104522 63 201 0.0 3.0 0.00 0.00 0.00 81 1009.1
20260506103520 63 216 0.0 2.0 0.00 0.00 0.00 81 1009.0
20260506102518 63 224 0.0 1.0 0.00 0.00 0.00 81 1009.0
20260506101520 63 231 0.0 2.0 0.00 0.00 0.00 81 1009.0
20260506100540 62 215 0.0 2.0 0.00 0.00 0.00 81 1008.8
20260506095518 63 197 0.0 2.0 0.00 0.00 0.00 81 1008.8
20260506094522 63 237 0.0 2.0 0.00 0.00 0.00 80 1008.8
20260506093522 63 208 0.0 2.0 0.00 0.00 0.00 80 1008.8
20260506092519 63 237 0.0 2.0 0.00 0.00 0.00 80 1008.8
20260506091539 63 231 1.0 2.0 0.00 0.00 0.00 79 1008.9
20260506090519 63 226 1.0 3.0 0.00 0.00 0.00 79 1008.9
20260506085519 63 219 0.0 3.0 0.00 0.00 0.00 78 1009.0
20260506084521 64 241 0.0 2.0 0.00 0.00 0.00 78 1009.0
20260506083519 64 205 0.0 3.0 0.00 0.00 0.00 77 1009.1
20260506082521 64 211 0.0 2.0 0.00 0.00 0.00 76 1009.1
20260506081520 64 202 1.0 3.0 0.00 0.00 0.00 75 1009.1
20260506080519 65 234 1.0 2.0 0.00 0.00 0.00 75 1009.1
20260506072521 66 231 0.0 2.0 0.00 0.00 0.00 71 1009.1
20260506071520 66 206 1.0 2.0 0.00 0.00 0.00 71 1009.2
20260506070521 66 217 0.0 1.0 0.00 0.00 0.00 69 1009.2
20260506061543 67 207 0.0 2.0 0.00 0.00 0.00 66 1009.3
20260506060519 67 223 1.0 4.0 0.00 0.00 0.00 66 1009.2
20260506050539 69 231 2.0 5.0 0.00 0.00 0.00 62 1009.8
20260506044520 69 218 1.0 4.0 0.00 0.00 0.00 61 1009.8
20260506043541 69 229 2.0 6.0 0.00 0.00 0.00 60 1009.8
20260506042520 69 225 2.0 5.0 0.00 0.00 0.00 60 1009.7
20260506041540 69 225 2.0 4.0 0.00 0.00 0.00 59 1009.7
20260506040518 70 218 2.0 6.0 0.00 0.00 0.00 59 1009.7
20260506035521 70 223 2.0 5.0 0.00 0.00 0.00 59 1009.6
20260506034520 70 230 2.0 6.0 0.00 0.00 0.00 58 1009.7
20260506033521 70 223 2.0 5.0 0.00 0.00 0.00 58 1009.6
20260506032518 71 217 2.0 6.0 0.00 0.00 0.00 57 1009.6
20260506031518 71 232 2.0 5.0 0.00 0.00 0.00 57 1009.6
20260506030518 71 225 2.0 5.0 0.00 0.00 0.00 56 1009.5
20260506025521 72 206 2.0 6.0 0.00 0.00 0.00 55 1009.5
20260506024522 72 222 1.0 5.0 0.00 0.00 0.00 53 1009.5
20260506023523 73 197 1.0 3.0 0.00 0.00 0.00 51 1009.5
20260506022519 73 233 1.0 3.0 0.00 0.00 0.00 50 1009.5
20260506021519 74 229 0.0 2.0 0.00 0.00 0.00 48 1009.4
20260506020519 75 222 2.0 5.0 0.00 0.00 0.00 46 1009.2
20260506015519 75 225 2.0 6.0 0.00 0.00 0.00 45 1009.2
20260506014521 75 218 3.0 7.0 0.00 0.00 0.00 45 1009.0
20260506013520 76 227 2.0 5.0 0.00 0.00 0.00 44 1008.9
20260506012539 76 226 2.0 8.0 0.00 0.00 0.00 43 1008.8
20260506011520 76 219 2.0 6.0 0.00 0.00 0.00 43 1008.6
20260506010520 77 223 2.0 5.0 0.00 0.00 0.00 42 1008.6
20260506005519 77 231 3.0 6.0 0.00 0.00 0.00 40 1008.5
20260506004520 77 233 2.0 5.0 0.00 0.00 0.00 40 1008.4
20260506003600 78 226 2.0 4.0 0.00 0.00 0.00 38 1008.3
20260506002520 78 226 2.0 5.0 0.00 0.00 0.00 38 1008.1
20260506001520 78 222 2.0 7.0 0.00 0.00 0.00 37 1007.9
20260506000520 78 221 2.0 7.0 0.00 0.00 0.00 37 1007.9
20260505235522 79 219 1.0 4.0 0.00 0.00 0.00 36 1007.9
20260505234518 79 218 2.0 7.0 0.00 0.00 0.00 35 1007.8
20260505233519 79 223 3.0 6.0 0.00 0.00 0.00 35 1007.7
20260505232541 79 225 2.0 4.0 0.00 0.00 0.00 34 1007.6
20260505231523 80 234 3.0 7.0 0.00 0.00 0.00 34 1007.4
20260505230519 80 219 3.0 8.0 0.00 0.00 0.00 34 1007.4
20260505225540 80 230 3.0 9.0 0.00 0.00 0.00 33 1007.3
20260505224538 81 228 5.0 14.0 0.00 0.00 0.00 32 1007.1
20260505223520 82 237 5.0 10.0 0.00 0.00 0.00 32 1007.0
20260505222523 82 232 5.0 15.0 0.00 0.00 0.00 32 1007.0
20260505221519 82 210 2.0 9.0 0.00 0.00 0.00 33 1006.9
20260505220519 82 227 4.0 8.0 0.00 0.00 0.00 33 1006.9
20260505215559 81 222 4.0 8.0 0.00 0.00 0.00 33 1007.0
20260505214520 81 203 3.0 7.0 0.00 0.00 0.00 33 1006.8
20260505213520 82 226 4.0 10.0 0.00 0.00 0.00 34 1006.6
20260505212520 82 196 2.0 6.0 0.00 0.00 0.00 34 1006.5
20260505211540 83 222 3.0 12.0 0.00 0.00 0.00 33 1006.5
20260505210520 82 231 5.0 11.0 0.00 0.00 0.00 33 1006.5
20260505205523 83 225 4.0 10.0 0.00 0.00 0.00 32 1006.5
20260505204521 83 240 6.0 13.0 0.00 0.00 0.00 32 1006.5
20260505203521 83 234 6.0 17.0 0.00 0.00 0.00 33 1006.6
20260505202518 84 218 4.0 10.0 0.00 0.00 0.00 33 1006.7
20260505201519 83 215 2.0 6.0 0.00 0.00 0.00 34 1006.7
20260505200521 83 184 2.0 7.0 0.00 0.00 0.00 35 1006.8
20260505195521 83 220 2.0 6.0 0.00 0.00 0.00 35 1006.8
20260505194521 84 216 3.0 8.0 0.00 0.00 0.00 35 1006.8
20260505193538 84 219 2.0 6.0 0.00 0.00 0.00 35 1007.0
20260505192519 84 230 4.0 9.0 0.00 0.00 0.00 34 1007.3
20260505191518 84 196 2.0 5.0 0.00 0.00 0.00 35 1007.3
20260505190519 83 222 3.0 9.0 0.00 0.00 0.00 35 1007.3
20260505185519 84 203 3.0 8.0 0.00 0.00 0.00 35 1007.5
20260505184519 83 210 3.0 8.0 0.00 0.00 0.00 37 1007.7
20260505183518 82 227 3.0 7.0 0.00 0.00 0.00 38 1007.9
20260505182519 82 220 3.0 7.0 0.00 0.00 0.00 37 1007.9
20260505181519 82 233 5.0 11.0 0.00 0.00 0.00 37 1008.0
20260505180519 82 227 5.0 12.0 0.00 0.00 0.00 38 1008.1
20260505175519 83 232 5.0 9.0 0.00 0.00 0.00 39 1008.2
20260505174520 82 150 2.0 5.0 0.00 0.00 0.00 41 1008.3
20260505173520 82 234 1.0 4.0 0.00 0.00 0.00 43 1008.4
20260505172519 81 219 1.0 4.0 0.00 0.00 0.00 44 1008.5
20260505171521 81 230 2.0 7.0 0.00 0.00 0.00 43 1008.7
20260505170520 81 230 3.0 7.0 0.00 0.00 0.00 43 1008.7
20260505165517 80 234 2.0 5.0 0.00 0.00 0.00 43 1008.9
20260505164538 80 207 1.0 6.0 0.00 0.00 0.00 45 1009.1
20260505163521 80 229 2.0 6.0 0.00 0.00 0.00 45 1009.2
20260505162521 80 200 1.0 5.0 0.00 0.00 0.00 46 1009.3
20260505161520 79 233 3.0 7.0 0.00 0.00 0.00 45 1009.4
20260505160518 78 230 2.0 7.0 0.00 0.00 0.00 46 1009.5
20260505152541 78 228 2.0 6.0 0.00 0.00 0.00 47 1010.0
20260505151521 77 205 1.0 4.0 0.00 0.00 0.00 48 1010.0
20260505150522 75 227 1.0 4.0 0.00 0.00 0.00 50 1010.1
20260505140520 72 18 0.0 2.0 0.00 0.00 0.00 54 1010.4
20260505124541 68 234 0.0 2.0 0.00 0.00 0.00 62 1010.2
20260505123521 66 252 0.0 2.0 0.00 0.00 0.00 65 1010.2
20260505122519 64 253 0.0 2.0 0.00 0.00 0.00 67 1010.3
20260505121518 63 240 1.0 3.0 0.00 0.00 0.00 69 1010.5
20260505120519 61 212 0.0 3.0 0.00 0.00 0.00 73 1010.6
20260505115518 58 267 0.0 1.0 0.00 0.00 0.00 77 1010.5
20260505114521 56 226 0.0 2.0 0.00 0.00 0.00 83 1010.4
20260505113521 55 302 0.0 2.0 0.00 0.00 0.00 86 1010.3